Location: Bothwell
(42.3833°S, 147.0000°E)
Time: 23:57:36
(UTC+10:00)

CUBEBUG 2 - Visible Passes

Search period start: 25 September 2022 00:00
Search period end: 05 October 2022 01:00
Orbit: 583 x 693 km, 97.7° (Epoch: 24 September)

Date Brightness Start Highest point End Pass type
(mag) Time Alt. Az. Time Alt. Az. Time Alt. Az.
02 Oct ? 01:32:33 11° S 01:32:33 11° S 01:32:48 10° S visible
03 Oct ? 02:55:24 13° S 02:55:24 13° S 02:55:53 10° S visible
04 Oct ? 03:18:15 13° SSW 03:18:15 13° SSW 03:18:46 10° SSW visible
